Regional Weather Roundup
Issued by NWS

Home | Current Version | Previous Version | Text Only | Print | Product List | Glossary Off
Versions: 1 2 3 4 5 6 7 8 9 10 11 12 13 14 15 16 17 18 19 20 21 22 23 24 25 26 27

000
ASUS45 KBOI 090610
RWRID

IDAHO REGIONAL WEATHER ROUNDUP
NATIONAL WEATHER SERVICE BOISE ID
1100 PM MST THU DEC 08 2016

NOTE: "FAIR" INDICATES FEW OR NO CLOUDS BELOW 12000 FEET
WITH NO SIGNIFICANT WEATHER AND/OR OBSTRUCTIONS TO VISIBILITY

IDZ012-014-090700-
SOUTHWEST IDAHO


CITY           SKY/WX    TMP DP  RH WIND       PRES   REMARKS
BOISE          CLOUDY    29  25  85 VRB3      30.06F
CALDWELL       FLURRIES  27  23  85 SE13      30.10S WCI  16
MOUNTAIN HOME  CLOUDY    26  23  88 SE24      30.07S FOG     WCI  11
$$

IDZ016-017-090700-
SOUTHCENTRAL IDAHO


CITY           SKY/WX    TMP DP  RH WIND       PRES   REMARKS
BURLEY         CLOUDY    23  21  92 NE10      30.05S WCI  12
JEROME         CLOUDY    20  17  88 NE23      30.08R WCI   3
TWIN FALLS     CLOUDY    21  18  88 NE7       30.07S WCI  12
$$

IDZ019>023-090700-
SOUTHEAST IDAHO


CITY           SKY/WX    TMP DP  RH WIND       PRES   REMARKS
IDAHO FALLS    CLOUDY    18  14  84 N5        30.10S WCI  11
POCATELLO      LGT SNOW  20  17  88 NE5       30.11S FOG     WCI  13
REXBURG        CLOUDY    16  14  92 NE6       30.09S WCI   7
$$

IDZ006-010-011-018-031-032-090700-
CENTRAL IDAHO MOUNTAINS


CITY           SKY/WX    TMP DP  RH WIND       PRES   REMARKS
MCCALL         LGT SNOW  17  12  80 CALM      29.97R
HAILEY         LGT SNOW  19  18  93 NW6       30.07S WCI  11
STANLEY          N/A      7   3  84 VRB3      29.95F
SALMON         CLOUDY    12  10  92 CALM      30.06F VSB 1
CHALLIS        FLURRIES  11   9  92 CALM      30.02F
$$

IDZ002-004-006-007-026-090700-
NORTHERN IDAHO


CITY           SKY/WX    TMP DP  RH WIND       PRES   REMARKS
LEWISTON       LGT SNOW  23  20  88 SE6       30.11F FOG     WCI  16
LOWELL           N/A     24  18  77 N3        30.18R
COEUR D`ALENE  CLOUDY    17   5  59 N15       30.14R WCI   2
MULLAN PASS    LGT SNOW   2  -2  83 SE8       29.87S FOG     WCI -12
$$




USA.gov is the U.S. government's official web portal to all federal, state and local government web resources and services.